Location: Platte
(43.3870°N, 98.8440°W)
Time: 19:02:20
(UTC-05:00)

Landsat 7 - Visible Passes

Search period start: 24 March 2017 00:00
Search period end: 03 April 2017 00:00
Orbit: 702 x 703 km, 98.2° (Epoch: 23 March)

Date Brightness Start Highest point End Pass type
(mag) Time Alt. Az. Time Alt. Az. Time Alt. Az.
24 Mar 5.6 22:40:27 23° NNE 22:40:27 23° NNE 22:42:30 10° N visible
25 Mar 6.7 00:19:20 12° NW 00:19:20 12° NW 00:19:52 10° NW visible
25 Mar 6.0 21:44:44 12° NE 21:44:44 12° NE 21:45:35 10° NE visible
25 Mar 5.8 23:23:37 25° NNW 23:23:37 25° NNW 23:25:33 10° NNW visible
26 Mar 5.5 22:27:54 22° NNE 22:27:54 22° NNE 22:30:05 10° N visible
27 Mar 6.5 00:06:47 16° NW 00:06:47 16° NW 00:07:57 10° NNW visible
27 Mar 5.5 23:11:03 28° N 23:11:03 28° N 23:13:20 10° N visible
28 Mar 5.6 22:15:20 20° NE 22:15:20 20° NE 22:17:35 10° NNE visible
28 Mar 6.2 23:54:14 21° NW 23:54:14 21° NW 23:55:56 10° NNW visible
29 Mar 5.3 22:58:30 30° N 22:58:30 30° N 23:01:03 10° N visible
30 Mar 6.8 00:37:23 10° NW 00:37:23 10° NW 00:37:32 10° NW visible
30 Mar 5.7 22:02:48 17° NE 22:02:48 17° NE 22:04:59 10° NNE visible
30 Mar 5.8 23:41:40 26° NNW 23:41:40 26° NNW 23:43:51 10° NNW visible
31 Mar 5.2 22:45:57 30° NNE 22:45:57 30° NNE 22:48:44 10° N visible
01 Apr 6.5 00:24:50 14° NW 00:24:50 14° NW 00:25:50 10° NW visible
01 Apr 5.8 21:50:15 14° NE 21:50:15 14° NE 21:52:11 10° NNE visible
01 Apr 5.4 23:29:07 32° NNW 23:29:07 32° NNW 23:31:42 10° NNW visible
02 Apr 5.2 22:33:25 28° NE 22:33:25 28° NE 22:36:20 10° N visible
